Weather History for PAGL - September, 2013

Change the Weather History Date:

Wednesday, September 25, 2013

  Actual Average Record
Temperature  
Mean Temperature 38 °F -  
Max Temperature 42 °F - - ()
Min Temperature 33 °F - - ()
Degree Days  
Heating Degree Days 26    
Moisture  
Dew Point 30 °F    
Average Humidity 72    
Maximum Humidity 87    
Minimum Humidity 57    
Precipitation  
Precipitation 0.00 in - - ()
Sea Level Pressure  
Sea Level Pressure 29.55 in    
Wind  
Wind Speed 10 mph (North)    
Max Wind Speed 14 mph    
Max Gust Speed 18 mph    
Visibility 10 miles    
Events      
T = Trace of Precipitation, MM = Missing Value Source: NWS Daily Summary

Daily Weather History Graph

Daily Weather History Graph

Search for Another Location

Airport or City:

Trip Planner

Search our weather history database for the weather conditions in past years. The results will help you decide how hot, cold, wet, or windy it might be!

Date:

Astronomy

Sep. 25, 2013 Rise Set
Actual Time 8:45 AM AKDT 8:40 PM AKDT
Civil Twilight 7:56 AM AKDT 9:28 PM AKDT
Nautical Twilight 6:58 AM AKDT 10:26 PM AKDT
Astronomical Twilight 5:52 AM AKDT 11:31 PM AKDT
Moon 10:53 PM AKDT (9/25) 5:05 PM AKDT (9/25)
Length of Visible Light 13h 31m
Length of Day
11h 55m
Waning Gibbous, 62% of the Moon is Illuminated
Sep 25
Waning Gibbous
Sep 26
Last Quarter
Oct 4
New
Oct 11
First Quarter
Oct 18
Full

Hourly Weather History & Observations

Time (AKDT) Temp. Windchill Dew Point Humidity Pressure Visibility Wind Dir Wind Speed Gust Speed Precip Events Conditions
11:56 AM 37.4 °F 29.8 °F 32.0 °F 81% 29.44 in 10.0 mi NNW 11.5 mph - N/A   Unknown
12:16 PM 37.4 °F 30.3 °F 32.0 °F 81% 29.45 in 10.0 mi North 10.4 mph - N/A   Overcast
12:36 PM 37.4 °F 29.8 °F 33.8 °F 87% 29.46 in 10.0 mi NNW 11.5 mph - N/A   Overcast
12:56 PM 37.4 °F 30.8 °F 30.2 °F 75% 29.46 in 10.0 mi North 9.2 mph - N/A   Overcast
1:16 PM 37.4 °F 30.3 °F 32.0 °F 81% 29.47 in 10.0 mi North 10.4 mph - N/A   Overcast
1:36 PM 37.4 °F 29.8 °F 30.2 °F 75% 29.47 in 10.0 mi North 11.5 mph - N/A   Overcast
2:16 PM 37.4 °F 30.8 °F 30.2 °F 75% 29.48 in 10.0 mi North 9.2 mph - N/A   Overcast
2:36 PM 37.4 °F 30.8 °F 32.0 °F 81% 29.49 in 10.0 mi North 9.2 mph - N/A   Overcast
2:56 PM 39.2 °F 33.6 °F 32.0 °F 75% 29.49 in 10.0 mi North 8.1 mph - N/A   Overcast
3:16 PM 39.2 °F 33.6 °F 32.0 °F 75% 29.50 in 10.0 mi North 8.1 mph - N/A   Overcast
3:36 PM 39.2 °F 32.0 °F 30.2 °F 70% 29.50 in 10.0 mi North 11.5 mph - N/A   Overcast
3:56 PM 41.0 °F 33.9 °F 32.0 °F 70% 29.51 in 10.0 mi North 12.7 mph - N/A   Overcast
4:16 PM 41.0 °F 35.2 °F 30.2 °F 65% 29.52 in 10.0 mi North 9.2 mph - N/A   Overcast
4:36 PM 41.0 °F 35.8 °F 30.2 °F 65% 29.52 in 10.0 mi North 8.1 mph - N/A   Mostly Cloudy
4:56 PM 41.0 °F 34.7 °F 30.2 °F 65% 29.53 in 10.0 mi North 10.4 mph - N/A   Overcast
5:16 PM 41.0 °F 33.5 °F 28.4 °F 61% 29.53 in 10.0 mi NNW 13.8 mph 18.4 mph N/A   Overcast
5:36 PM 42.8 °F 36.6 °F 28.4 °F 57% 29.54 in 10.0 mi NNW 11.5 mph 18.4 mph N/A   Overcast
5:56 PM 42.8 °F 37.0 °F 28.4 °F 57% 29.54 in 10.0 mi North 10.4 mph 16.1 mph N/A   Overcast
6:36 PM 41.0 °F 36.4 °F 28.4 °F 61% 29.56 in 10.0 mi North 6.9 mph - N/A   Overcast
6:56 PM 42.8 °F 36.6 °F 28.4 °F 57% 29.57 in 10.0 mi North 11.5 mph - N/A   Overcast
7:16 PM 41.0 °F 33.5 °F 30.2 °F 65% 29.57 in 10.0 mi NNW 13.8 mph - N/A   Overcast
7:56 PM 39.2 °F 31.2 °F 30.2 °F 70% 29.59 in 10.0 mi NNW 13.8 mph 17.3 mph N/A   Overcast
8:16 PM 39.2 °F 31.6 °F 30.2 °F 70% 29.60 in 10.0 mi NNW 12.7 mph - N/A   Overcast
8:36 PM 39.2 °F 32.5 °F 30.2 °F 70% 29.61 in 10.0 mi NNW 10.4 mph - N/A   Overcast
8:56 PM 37.4 °F 30.3 °F 28.4 °F 70% 29.62 in 10.0 mi North 10.4 mph - N/A   Overcast
10:16 PM 35.6 °F 28.0 °F 30.2 °F 81% 29.66 in 10.0 mi NNW 10.4 mph - N/A   Mostly Cloudy
10:36 PM 35.6 °F 28.6 °F 28.4 °F 75% 29.66 in 10.0 mi NNW 9.2 mph - N/A   Mostly Cloudy
10:56 PM 35.6 °F 29.2 °F 28.4 °F 75% 29.67 in 10.0 mi North 8.1 mph - N/A   Overcast
11:16 PM 35.6 °F 29.2 °F 28.4 °F 75% 29.67 in 10.0 mi North 8.1 mph - N/A   Overcast
11:36 PM 35.6 °F 29.2 °F 28.4 °F 75% 29.67 in 10.0 mi North 8.1 mph - N/A   Overcast
11:56 PM 33.8 °F 26.4 °F 28.4 °F 81% 29.67 in 10.0 mi North 9.2 mph - N/A   Overcast